This is the latest recevied weather packets stored in our database for station/object K5VW. If no packets are shown the sender has not sent any weather packets the latest 1 day(s).
| Time | Temp. | Humidity | Pressure | Rain* | Wind** | Luminosity | Snow |
|---|---|---|---|---|---|---|---|
| 1778016477 | 26.11° C | 27% | 1007.5 hPa | 0 mm | 5.81 m/s, 278° | - | - |
| 1778016414 | 26.67° C | 27% | 1007.8 hPa | 0 mm | 5.81 m/s, 265° | - | - |
| 1778016356 | 26.11° C | 27% | 1007.7 hPa | 0 mm | 5.81 m/s, 300° | - | - |
| 1778016291 | 26.11° C | 27% | 1007.7 hPa | 0 mm | 6.26 m/s, 221° | - | - |
| 1778016225 | 26.11° C | 27% | 1007.7 hPa | 0 mm | 6.71 m/s, 253° | - | - |
| 1778016158 | 26.11° C | 27% | 1007.7 hPa | 0 mm | 6.71 m/s, 278° | - | - |
| 1778016100 | 26.11° C | 27% | 1007.7 hPa | 0 mm | 6.71 m/s, 283° | - | - |
| 1778016037 | 26.11° C | 26% | 1007.7 hPa | 0 mm | 7.15 m/s, 260° | - | - |
| 1778015976 | 26.11° C | 27% | 1007.7 hPa | 0 mm | 6.71 m/s, 233° | - | - |
| 1778015919 | 26.11° C | 27% | 1007.7 hPa | 0 mm | 6.71 m/s, 294° | - | - |
| 1778015859 | 26.11° C | 27% | 1007.7 hPa | 0 mm | 6.71 m/s, 268° | - | - |
| 1778015799 | 26.11° C | 26% | 1007.7 hPa | 0 mm | 6.26 m/s, 232° | - | - |
| 1778015734 | 26.11° C | 27% | 1007.7 hPa | 0 mm | 5.81 m/s, 247° | - | - |
| 1778015679 | 26.67° C | 26% | 1007.8 hPa | 0 mm | 5.81 m/s, 262° | - | - |
| 1778015613 | 26.67° C | 26% | 1007.8 hPa | 0 mm | 5.81 m/s, 274° | - | - |
| 1778015558 | 26.67° C | 27% | 1007.2 hPa | 0 mm | 5.81 m/s, 269° | - | - |
| 1778015489 | 26.67° C | 27% | 1007.2 hPa | 0 mm | 5.81 m/s, 292° | - | - |
| 1778015434 | 26.67° C | 27% | 1007.2 hPa | 0 mm | 5.81 m/s, 273° | - | - |
| 1778015374 | 26.67° C | 28% | 1007.1 hPa | 0 mm | 5.36 m/s, 227° | - | - |
| 1778015311 | 26.11° C | 28% | 1007.1 hPa | 0 mm | 5.81 m/s, 276° | - | - |
| 1778015231 | 26.11° C | 26% | 1007 hPa | 0 mm | 5.81 m/s, 233° | - | - |
| 1778015171 | 26.11° C | 26% | 1007.1 hPa | 0 mm | 5.81 m/s, 270° | - | - |
| 1778015111 | 26.11° C | 26% | 1007.1 hPa | 0 mm | 5.81 m/s, 214° | - | - |
| 1778015052 | 26.67° C | 26% | 1007.2 hPa | 0 mm | 5.81 m/s, 252° | - | - |
| 1778014986 | 26.67° C | 26% | 1007.2 hPa | 0 mm | 5.81 m/s, 235° | - | - |
* Rain latest hour (hover to see other rain measurements)
** Current wind speed in m/s (hover to see current wind gust speed)